| time (UTC) | temp C | wind direction | speed KPH | gust KPH | rain 1hr cm | rain 24hr cm | rain mn cm | humidity % | barometer mb |
| 20260504150743 | 15 | 265 | 4.8 | 11.3 | 0.00 | 1.04 | 0.00 | 58 | 1008.5 |
| 20260504140742 | 15 | 277 | 8.0 | 12.9 | 0.00 | 3.12 | 1.09 | 55 | 1008.1 |
| 20260504130741 | 16 | 267 | 8.0 | 11.3 | 0.00 | 4.42 | 1.09 | 55 | 1007.6 |
| 20260504081742 | 20 | 265 | 9.7 | 11.3 | 0.00 | 6.65 | 1.09 | 50 | 1001.2 |
| 20260504080742 | 20 | 264 | 11.3 | 20.9 | 0.00 | 6.68 | 1.09 | 49 | 1000.9 |
| 20260504050743 | 22 | 271 | 11.3 | 19.3 | 0.00 | 6.86 | 1.09 | 46 | 998.3 |
| 20260504045742 | 23 | 271 | 8.0 | 14.5 | 0.00 | 6.86 | 1.09 | 45 | 998.3 |
| 20260504044742 | 23 | 270 | 9.7 | 12.9 | 0.00 | 6.86 | 1.09 | 46 | 998.3 |
| 20260504043742 | 23 | 264 | 11.3 | 19.3 | 0.00 | 6.86 | 1.09 | 45 | 998.3 |
| 20260504042742 | 23 | 273 | 9.7 | 14.5 | 0.00 | 6.86 | 1.09 | 46 | 998.4 |
| 20260504041742 | 23 | 275 | 9.7 | 14.5 | 0.00 | 6.86 | 1.09 | 44 | 998.2 |
| 20260504040742 | 23 | 279 | 9.7 | 19.3 | 0.00 | 6.86 | 1.09 | 42 | 998.3 |
| 20260504035742 | 23 | 274 | 12.9 | 19.3 | 0.00 | 6.86 | 1.09 | 42 | 998.4 |
| 20260504034742 | 23 | 272 | 4.8 | 14.5 | 0.00 | 6.86 | 1.09 | 47 | 998.2 |
| 20260504033742 | 23 | 272 | 11.3 | 11.3 | 0.00 | 6.86 | 1.09 | 52 | 998.2 |
| 20260504032741 | 23 | 276 | 11.3 | 19.3 | 0.00 | 6.86 | 1.09 | 52 | 998.2 |
| 20260504031741 | 23 | 273 | 9.7 | 14.5 | 0.00 | 6.86 | 1.09 | 51 | 998.1 |
| 20260504030741 | 23 | 269 | 9.7 | 12.9 | 0.00 | 6.86 | 1.09 | 51 | 998.2 |
| 20260504025741 | 23 | 269 | 11.3 | 19.3 | 0.00 | 6.86 | 1.09 | 53 | 998.3 |
| 20260504024741 | 23 | 271 | 8.0 | 12.9 | 0.00 | 6.86 | 1.09 | 54 | 998.3 |
| 20260504023743 | 23 | 270 | 8.0 | 16.1 | 0.00 | 6.86 | 1.09 | 56 | 998.5 |
| 20260504022743 | 22 | 269 | 8.0 | 11.3 | 0.00 | 6.86 | 1.09 | 59 | 998.5 |
| 20260504021742 | 22 | 276 | 8.0 | 24.1 | 0.00 | 6.86 | 1.09 | 61 | 998.4 |
| 20260504020742 | 22 | 271 | 8.0 | 14.5 | 0.00 | 6.86 | 1.09 | 64 | 998.6 |
| 20260504015742 | 21 | 272 | 9.7 | 14.5 | 0.00 | 6.86 | 1.09 | 66 | 998.7 |
| 20260504014742 | 21 | 268 | 8.0 | 12.9 | 0.00 | 6.86 | 1.09 | 66 | 998.6 |
| 20260504013742 | 21 | 265 | 11.3 | 12.9 | 0.00 | 6.86 | 1.09 | 68 | 998.7 |
| 20260504012742 | 21 | 272 | 9.7 | 19.3 | 0.00 | 6.86 | 1.09 | 68 | 999.0 |
| 20260504011742 | 20 | 274 | 11.3 | 25.7 | 0.00 | 6.86 | 1.09 | 70 | 999.0 |
| 20260504010741 | 20 | 269 | 8.0 | 9.7 | 0.00 | 6.86 | 1.09 | 74 | 998.9 |
| 20260504005741 | 20 | 270 | 8.0 | 14.5 | 0.00 | 6.86 | 1.09 | 75 | 998.9 |
| 20260504004741 | 20 | 267 | 4.8 | 11.3 | 0.00 | 6.86 | 1.09 | 77 | 998.9 |
| 20260504003741 | 20 | 267 | 9.7 | 19.3 | 0.00 | 6.86 | 1.09 | 78 | 999.0 |
| 20260504002741 | 20 | 270 | 9.7 | 11.3 | 0.00 | 6.86 | 1.09 | 80 | 998.8 |
| 20260504001741 | 20 | 270 | 3.2 | 11.3 | 0.00 | 6.86 | 1.09 | 83 | 998.7 |
| 20260504000743 | 20 | 272 | 3.2 | 4.8 | 0.00 | 6.86 | 1.09 | 84 | 998.8 |
| 20260503235743 | 19 | 263 | 1.6 | 3.2 | 0.00 | 6.86 | 1.09 | 85 | 998.8 |
| 20260503234742 | 19 | 279 | 1.6 | 8.0 | 0.00 | 6.86 | 1.09 | 85 | 998.7 |
| 20260503233742 | 18 | 259 | 3.2 | 4.8 | 0.00 | 6.86 | 1.09 | 86 | 998.9 |
| 20260503232742 | 18 | 253 | 3.2 | 3.2 | 0.00 | 6.86 | 1.09 | 86 | 998.9 |
| 20260503231742 | 18 | 281 | 3.2 | 9.7 | 0.00 | 6.86 | 1.09 | 86 | 998.8 |
| 20260503230742 | 18 | 270 | 4.8 | 11.3 | 0.00 | 6.86 | 1.09 | 86 | 998.8 |
| 20260503225742 | 18 | 273 | 3.2 | 9.7 | 0.00 | 6.86 | 1.09 | 87 | 998.9 |
| 20260503224742 | 18 | 274 | 4.8 | 9.7 | 0.00 | 6.86 | 1.09 | 88 | 998.5 |
| 20260503223742 | 18 | 266 | 3.2 | 16.1 | 0.00 | 6.86 | 1.09 | 87 | 998.1 |
| 20260503222742 | 18 | 258 | 1.6 | 8.0 | 0.00 | 6.86 | 1.09 | 88 | 998.1 |
| 20260503221741 | 18 | 260 | 0.0 | 4.8 | 0.00 | 6.86 | 1.09 | 88 | 998.0 |
| 20260503220741 | 18 | 255 | 3.2 | 11.3 | 0.00 | 6.86 | 1.09 | 88 | 997.8 |
| 20260503215741 | 18 | 254 | 3.2 | 9.7 | 0.00 | 6.86 | 1.09 | 88 | 997.4 |
| 20260503213741 | 18 | 261 | 1.6 | 3.2 | 0.00 | 6.86 | 1.09 | 88 | 997.6 |
| 20260503212741 | 18 | 277 | 8.0 | 14.5 | 0.00 | 6.86 | 1.09 | 87 | 997.2 |
| 20260503211741 | 19 | 260 | 4.8 | 12.9 | 0.00 | 6.86 | 1.09 | 87 | 997.2 |
| 20260503210743 | 20 | 274 | 8.0 | 11.3 | 0.00 | 6.86 | 1.09 | 87 | 997.0 |
| 20260503205743 | 20 | 270 | 9.7 | 14.5 | 0.00 | 6.86 | 1.09 | 88 | 997.2 |
| 20260503203742 | 20 | 266 | 8.0 | 16.1 | 0.03 | 6.86 | 1.09 | 91 | 996.9 |
| 20260503202742 | 20 | 279 | 3.2 | 4.8 | 0.13 | 6.86 | 1.09 | 92 | 996.7 |
| 20260503201742 | 20 | 270 | 3.2 | 8.0 | 0.25 | 6.86 | 1.09 | 92 | 996.9 |
| 20260503200742 | 20 | 273 | 8.0 | 9.7 | 0.30 | 6.86 | 1.09 | 93 | 996.9 |
| 20260503195742 | 20 | 277 | 8.0 | 9.7 | 0.38 | 6.86 | 1.09 | 93 | 996.6 |
| 20260503194742 | 20 | 267 | 9.7 | 16.1 | 0.51 | 6.83 | 1.07 | 93 | 996.4 |
| 20260503193741 | 20 | 265 | 11.3 | 16.1 | 0.69 | 6.83 | 1.07 | 93 | 996.3 |
| 20260503192741 | 20 | 270 | 16.1 | 25.7 | 0.66 | 6.73 | 0.97 | 92 | 996.2 |
| 20260503191741 | 20 | 269 | 11.3 | 22.5 | 0.53 | 6.60 | 0.84 | 92 | 996.3 |
| 20260503185741 | 20 | 257 | 16.1 | 32.2 | 0.41 | 6.48 | 0.71 | 92 | 995.7 |
| 20260503184741 | 20 | 259 | 19.3 | 27.4 | 0.25 | 6.32 | 0.56 | 92 | 995.4 |
| 20260503183743 | 20 | 250 | 19.3 | 29.0 | 0.08 | 6.15 | 0.38 | 90 | 995.5 |
| 20260503182743 | 20 | 252 | 20.9 | 40.2 | 0.00 | 6.07 | 0.30 | 89 | 995.5 |
| 20260503181743 | 20 | 251 | 16.1 | 35.4 | 0.00 | 6.07 | 0.30 | 89 | 995.7 |
| 20260503180742 | 20 | 252 | 20.9 | 33.8 | 0.00 | 6.07 | 0.30 | 89 | 996.0 |
| 20260503175742 | 21 | 253 | 19.3 | 35.4 | 0.00 | 6.07 | 0.30 | 89 | 996.3 |
| 20260503174742 | 20 | 261 | 16.1 | 29.0 | 0.03 | 6.07 | 0.30 | 89 | 996.5 |
| 20260503173742 | 20 | 252 | 16.1 | 29.0 | 0.03 | 6.07 | 0.30 | 89 | 996.6 |
| 20260503172742 | 20 | 248 | 16.1 | 24.1 | 0.03 | 6.07 | 0.30 | 89 | 996.7 |
| 20260503171742 | 20 | 246 | 14.5 | 20.9 | 0.03 | 6.07 | 0.30 | 90 | 997.0 |
| 20260503170742 | 20 | 254 | 14.5 | 27.4 | 0.03 | 6.07 | 0.30 | 90 | 997.2 |